Tracking 19146 objects as of 23-Apr-2018
HD Live streaming from Space Station
objects crossing your sky now

IRIDIUM 14

Track IRIDIUM 14 now!
10-day predictions
IRIDIUM 14 is classified as:


NORAD ID: 25777
Int'l Code: 1999-032A
Perigee: 783.1 km
Apogee: 786.5 km
Inclination: 86.4 °
Period: 100.4 minutes
Semi major axis: 7155 km
RCS: 3.7031 m2 (large)
Launch date: June 11, 1999
Source: United States (US)
Launch site: Taiyaun Space Center, China (TSC)
aabbcc
Your satellite tracking list
Your tracking list is empty




NASA's NSSDC Master Catalog

Two Line Element Set (TLE):
1 25777U 99032A   18113.41071803 -.00000012  00000-0 -11341-4 0  9998
2 25777  86.3929  94.3179 0002358  83.0098 277.1366 14.34214453999141
Source of the keplerian elements: AFSPC